Location: Lombard
(41.8800°N, 88.0080°W)
Time: 00:17:05
(UTC-05:00)

Tiros 1 - Pass Details

Date: 05 February 2023
Orbit: 628 x 662 km, 48.4° (Epoch: 20 March)

Event Time Altitude Azimuth Distance (km) Brightness Sun altitude
Rises 00:13:02 0° 249° (WSW) 2,902 - -64.1°
Reaches altitude 10° 00:15:21 10° 252° (WSW) 1,998 - -64.0°
Maximum altitude 00:19:56 70° 335° (NNW) 672 - -63.9°
Drops below altitude 10° 00:24:34 10° 60° (ENE) 2,017 - -63.8°
Sets 00:26:55 0° 63° (ENE) 2,932 - -63.7°
